Wind_Speed
15 12 12 14 11 6 4 7 10 9 7 5 3 4 4 4 5 4 4 4 3 4 5 8 13 15 15 13 13 13 11 15 20 17 15 15 14 13 13 13 13 13 13 15 20 24 27 29 33 35 36 37 37 37 37 39 39 39 39 39 38 37 36
18 14 11 15 15 9 4 6 7 2 2 4 3 4 4 4 6 4 5 7 5 5 5 6 12 15 16 15 14 14 12 13 18 17 16 16 15 15 15 15 14 13 13 15 19 24 29 32 34 36 37 37 38 38 38 39 39 39 40 39 38 37 37
16 15 11 12 14 13 9 5 3 4 4 5 4 4 4 5 7 4 5 8 6 6 5 6 12 13 14 15 15 15 14 12 15 17 18 19 17 15 15 15 14 13 14 15 19 25 29 32 34 36 37 38 38 37 38 39 40 40 40 39 38 38 38
14 12 10 9 8 11 11 8 5 5 5 5 6 6 3 4 5 4 5 7 5 6 5 6 11 12 14 14 14 15 16 14 15 15 16 17 17 15 15 15 14 14 16 17 21 27 29 32 34 35 36 37 37 36 36 38 38 39 39 39 38 37 37
11 10 9 10 9 9 10 9 9 8 4 4 6 7 6 5 4 4 5 5 5 5 5 8 10 12 15 16 15 15 15 15 17 17 17 16 16 16 16 15 15 16 16 18 23 28 30 30 32 34 36 37 37 36 36 37 38 38 39 39 39 38 37
8 8 11 14 14 12 11 9 11 10 6 4 5 7 7 7 5 5 5 4 6 5 5 8 10 11 14 15 14 13 12 14 16 16 19 19 18 18 18 17 17 16 15 16 21 26 27 28 31 35 37 37 37 37 37 37 38 38 39 40 40 38 36
8 8 12 19 19 16 13 11 11 10 8 6 5 5 5 6 6 6 5 5 6 6 6 7 7 9 12 14 13 12 12 14 14 13 17 19 19 19 18 18 16 14 14 15 18 22 25 27 30 34 35 36 37 37 37 37 38 39 40 40 39 38 37
9 11 9 17 20 17 12 11 11 10 9 8 7 5 3 4 6 5 5 6 7 5 6 7 7 7 9 12 15 14 13 13 13 12 14 16 16 16 16 16 14 12 12 12 14 16 20 23 28 32 33 34 35 36 37 38 38 40 40 39 38 38 38
7 9 7 10 17 15 9 8 11 13 14 12 9 7 3 4 7 8 5 5 6 6 6 8 7 6 7 8 13 14 11 11 13 12 12 16 17 15 15 14 12 11 11 12 12 12 15 20 25 29 31 33 34 35 36 36 37 39 39 38 37 38 38
9 9 7 5 9 11 8 8 12 16 18 16 11 6 5 6 8 10 8 6 5 6 11 12 9 6 5 5 8 12 10 11 13 10 11 17 17 14 14 12 10 11 12 12 13 11 12 19 23 26 29 32 33 34 35 36 36 37 37 37 37 37 38
9 8 7 4 4 8 12 14 15 14 16 18 12 6 7 6 4 6 9 9 8 6 8 13 10 7 7 5 6 10 8 7 9 8 9 14 15 13 15 14 12 13 14 14 14 12 14 19 23 26 29 31 32 34 35 35 36 36 36 36 36 36 38
13 9 7 8 9 9 13 17 17 16 15 16 14 11 11 7 4 6 8 7 10 11 10 11 9 7 8 7 7 9 7 7 8 8 11 15 15 14 15 15 15 15 14 14 14 13 14 19 23 24 27 31 33 34 35 36 36 36 36 36 36 36 37
19 16 12 12 13 12 12 16 18 18 17 17 16 14 13 9 6 9 8 5 7 10 11 11 8 7 8 8 9 9 8 8 8 8 13 17 17 16 16 15 14 14 13 13 13 13 14 16 20 22 25 29 31 33 35 37 37 37 37 37 37 37 37
18 19 18 17 16 14 12 13 16 18 19 20 18 14 11 11 10 10 10 10 9 8 8 9 7 7 6 4 4 5 7 11 12 9 11 13 14 14 14 13 12 13 14 14 14 14 14 14 18 21 23 27 31 33 35 37 37 37 38 38 38 37 38
11 17 20 20 19 16 14 12 13 17 19 20 19 16 12 10 9 10 10 10 11 8 7 7 6 5 4 3 4 1 2 9 14 13 11 13 14 13 12 12 12 12 13 13 13 13 14 16 20 23 25 29 32 33 34 36 37 38 38 39 39 39 39
5 10 17 21 20 17 17 18 16 16 16 14 13 14 14 12 10 8 7 7 8 8 7 7 6 4 5 6 6 4 3 6 11 12 12 13 15 15 14 14 13 14 14 14 14 14 15 17 22 26 27 29 30 32 34 37 38 38 38 39 40 40 40
3 4 7 13 15 14 16 18 16 11 9 11 11 11 13 16 13 7 6 7 7 5 6 6 8 7 7 7 7 6 6 7 9 11 11 12 13 15 16 16 15 15 13 13 14 15 15 18 25 30 31 30 31 35 37 38 38 37 37 39 41 41 40
3 4 5 6 8 11 11 10 11 11 8 9 10 8 9 12 11 10 9 7 5 4 6 8 9 10 9 8 7 7 8 8 9 9 9 10 10 12 15 16 15 14 13 12 13 15 18 24 29 33 34 34 36 38 37 36 38 38 37 37 39 41 41
4 3 4 6 7 8 6 5 9 11 10 8 8 9 9 7 7 10 11 8 7 7 6 6 7 7 9 7 6 8 8 8 9 8 8 8 8 9 12 14 15 14 14 13 11 13 20 27 29 30 32 34 34 35 35 36 37 39 38 36 38 40 41
4 3 4 6 4 4 5 3 4 3 3 4 4 5 7 5 4 1 1 1 1 0 2 2 1 1 5 5 4 6 8 8 8 8 8 8 7 7 10 12 14 14 14 14 15 19 24 27 27 28 31 33 31 31 34 35 36 38 37 34 36 39 40
5 5 4 4 3 4 6 4 1 2 2 1 2 1 3 5 7 7 5 6 7 7 7 6 6 6 6 5 5 5 6 8 8 8 7 7 7 7 8 11 14 16 19 21 24 26 27 26 27 29 31 32 31 30 32 33 33 35 35 32 34 38 40
1 4 4 4 4 5 5 2 2 3 4 4 7 4 2 5 7 8 7 7 8 8 8 7 7 8 7 5 7 8 7 7 8 8 7 7 7 6 6 8 13 17 22 26 28 28 27 26 29 31 31 31 30 28 29 31 31 31 31 32 34 37 40
1 2 5 5 5 4 3 2 1 4 6 5 6 5 3 5 5 7 9 9 9 8 7 7 7 8 5 4 7 9 9 10 10 10 9 6 5 4 1 2 8 17 24 27 28 27 25 26 30 31 31 31 30 27 28 31 30 28 29 32 36 38 40
2 2 2 3 2 2 1 1 2 5 7 6 5 1 3 4 5 7 9 10 9 8 7 7 8 8 5 5 7 10 10 10 11 12 8 5 8 8 5 4 4 18 25 22 20 21 23 28 33 34 33 31 27 27 29 29 28 28 30 34 37 38 39
2 3 1 2 1 1 2 4 4 3 5 6 4 5 5 2 5 7 10 11 9 8 8 7 6 6 5 5 7 11 12 10 10 11 8 1 5 7 6 6 1 14 22 20 20 24 28 32 34 35 34 30 27 28 28 27 28 31 33 35 36 36 37
2 3 2 2 1 1 0 4 7 7 3 3 3 4 2 3 7 8 9 10 8 8 8 7 5 6 6 8 9 12 13 12 11 12 12 9 7 5 7 10 7 5 17 20 22 26 30 33 33 34 32 27 26 27 25 25 31 34 33 35 37 37 38
2 2 3 2 1 3 1 3 5 5 2 4 3 1 5 6 7 8 8 9 8 7 7 7 7 7 8 9 10 10 11 12 12 11 11 11 12 12 10 10 11 4 7 14 19 24 29 30 31 34 33 27 23 23 25 29 34 33 33 36 38 37 38
2 2 1 1 5 10 6 2 2 1 2 1 1 4 6 6 6 6 7 9 8 7 8 8 9 9 9 9 10 10 10 11 11 11 12 11 12 14 13 14 17 13 5 3 7 15 23 30 34 33 30 27 23 20 23 30 33 34 35 36 36 36 36
1 3 4 5 11 15 9 3 6 4 3 5 6 7 7 6 6 6 7 8 9 10 10 10 10 9 8 8 9 10 10 10 10 11 12 12 12 13 13 16 21 18 12 11 12 11 9 12 28 35 32 26 22 21 26 31 35 38 38 37 36 35 34
3 4 3 5 11 16 14 5 4 8 8 8 9 10 9 8 8 8 8 9 11 11 11 10 9 8 6 7 9 10 10 11 11 11 12 13 15 15 15 16 19 16 11 14 14 15 23 29 21 19 31 31 23 22 30 35 37 39 38 36 35 34 33
4 3 3 7 10 15 16 8 2 11 13 10 10 11 9 8 11 11 10 11 12 12 12 11 10 8 8 8 8 8 9 10 11 12 12 12 14 15 16 17 17 13 9 11 11 9 10 21 33 27 11 26 31 31 35 38 39 41 40 37 35 34 34
3 3 3 6 8 13 13 10 6 8 13 13 12 11 10 11 13 13 13 12 12 11 11 10 10 11 11 10 9 9 8 8 9 10 10 11 12 14 17 19 18 13 8 7 9 8 7 12 22 32 28 7 15 25 31 36 38 37 37 36 34 32 33
4 2 3 5 7 10 12 14 11 8 8 13 14 12 13 14 14 14 14 14 12 12 11 10 11 12 12 11 10 10 9 8 9 9 9 11 12 12 15 19 18 14 9 7 7 9 11 16 23 23 27 25 19 23 25 30 35 33 31 34 34 30 28
3 1 3 4 4 5 7 10 10 10 8 10 14 14 14 14 12 12 14 13 13 13 12 11 12 13 12 11 11 11 10 9 8 8 9 10 10 11 14 18 19 15 10 8 8 12 14 17 22 21 15 17 21 30 32 34 38 36 32 31 31 27 26
4 5 5 3 1 2 5 8 9 8 7 9 13 13 13 13 11 11 13 12 12 13 12 12 12 12 11 11 11 11 12 12 11 10 10 8 8 11 15 16 16 16 12 6 6 11 13 14 15 18 16 15 22 30 31 30 33 34 31 27 24 23 25
8 8 4 1 0 1 3 6 8 8 7 8 11 11 11 12 12 12 12 12 11 11 11 12 12 11 11 12 12 12 13 14 14 14 15 15 15 16 18 16 14 16 15 8 5 8 10 11 12 14 16 17 22 26 28 29 30 31 32 28 22 21 24
8 6 3 4 2 1 1 3 6 7 7 7 9 9 10 10 11 11 12 11 10 10 10 11 11 12 12 11 11 12 11 12 15 16 17 20 23 22 21 18 16 16 16 10 9 12 11 11 10 8 10 18 22 23 26 29 29 29 30 29 25 24 25
Wind_Direction
222 206 185 199 219 220 183 195 219 224 198 204 234 237 247 248 243 232 212 232 218 214 228 192 184 188 187 186 187 195 198 184 185 190 189 188 187 186 184 184 185 182 180 184 185 185 184 184 185 186 187 185 185 186 187 188 190 191 194 195 197 197 197
217 217 198 201 214 214 188 199 211 202 204 227 223 226 238 236 241 230 210 237 224 200 243 211 187 187 189 193 193 200 201 179 178 184 185 186 184 182 185 187 190 185 179 184 186 184 184 185 186 187 187 186 186 187 187 187 188 190 194 195 197 198 198
202 210 214 208 211 214 219 231 184 157 209 223 208 217 211 209 235 246 230 242 220 190 217 201 187 181 179 187 193 203 206 181 173 179 181 182 182 182 186 188 192 192 188 187 186 186 185 185 186 186 186 185 186 188 187 187 189 191 193 195 197 198 199
185 192 214 208 198 204 219 246 234 205 208 200 200 222 217 197 220 232 234 246 233 208 206 188 186 177 174 185 190 201 206 188 174 175 178 181 181 182 187 189 192 196 196 193 189 188 187 184 184 183 183 185 186 187 187 188 190 191 192 195 197 198 199
188 188 201 193 183 188 203 221 226 227 224 189 192 210 215 204 198 201 217 236 248 232 198 191 199 188 185 191 189 194 199 186 178 174 174 182 185 185 187 188 193 196 197 196 192 190 188 183 181 181 183 185 185 186 186 187 188 190 192 195 197 198 199
215 199 187 183 184 189 194 206 219 224 220 200 199 211 215 211 208 209 213 240 257 245 205 199 204 198 198 195 185 188 188 179 182 181 176 180 184 187 188 188 192 194 191 191 191 189 186 180 179 181 183 184 185 185 186 186 188 190 193 195 197 197 198
254 230 190 181 184 191 196 203 214 221 218 208 208 216 211 210 220 216 217 254 261 247 232 220 207 200 202 191 174 179 188 184 185 186 182 183 185 186 187 187 190 190 187 185 183 183 184 181 179 180 182 184 185 185 185 186 188 192 195 196 197 197 197
274 269 222 184 181 188 199 204 204 213 221 218 222 226 194 196 214 195 195 238 245 241 249 247 225 198 185 180 176 179 187 191 194 189 181 182 186 187 187 187 187 184 180 177 175 179 185 183 179 179 181 183 184 184 185 187 189 192 195 196 196 196 197
251 266 251 194 184 188 200 203 195 203 214 217 228 235 206 203 216 197 189 234 235 215 228 254 251 205 168 173 183 184 179 184 199 198 177 176 185 188 187 185 179 172 168 173 179 182 184 183 180 179 180 181 183 185 187 188 190 193 194 195 195 196 197
213 227 233 202 183 184 197 205 196 198 206 212 221 225 213 224 226 211 207 234 248 209 201 224 244 221 197 190 186 193 193 187 196 192 168 174 182 180 176 174 166 164 171 180 183 181 180 182 181 180 179 179 182 185 188 189 191 193 194 194 194 196 196
208 222 232 239 204 186 191 201 204 200 202 208 211 216 223 217 205 223 224 223 245 251 212 218 227 209 210 222 184 183 185 180 184 170 155 172 178 171 168 169 167 171 178 181 180 177 179 181 182 181 180 180 181 183 186 189 191 192 193 194 194 196 196
211 220 238 244 240 223 196 191 200 207 207 209 208 214 226 211 177 245 248 215 227 249 246 237 235 211 206 210 181 169 163 161 166 155 156 168 173 173 173 172 172 176 180 180 177 175 176 179 181 181 181 181 181 182 185 187 190 191 192 193 194 196 197
213 221 237 239 240 246 219 191 193 202 209 216 219 219 219 208 206 239 239 201 210 239 247 244 237 224 219 208 188 175 152 136 137 144 159 167 170 173 174 173 174 175 178 180 179 178 176 178 180 181 182 182 181 182 185 187 189 190 191 191 194 196 197
207 215 231 241 243 249 240 209 194 196 205 214 223 231 225 213 220 233 228 220 223 231 243 242 221 205 214 202 173 169 137 129 134 142 153 161 166 170 174 177 178 178 180 182 182 180 178 179 183 183 183 183 183 183 185 187 189 190 190 190 192 195 197
203 206 217 233 244 251 256 244 211 200 204 208 212 224 233 231 231 231 224 229 237 233 232 244 230 189 166 115 113 154 145 139 144 148 154 161 165 169 175 180 182 184 186 185 182 180 181 183 185 186 186 186 186 185 185 187 189 189 189 190 192 194 197
219 212 208 217 230 248 261 258 239 214 204 206 208 209 214 224 232 234 226 224 241 241 227 239 249 209 169 156 153 166 186 168 161 159 159 164 169 171 174 180 186 189 187 185 183 184 187 187 186 188 189 187 186 186 187 189 189 189 190 191 192 195 197
221 246 227 216 216 230 245 247 246 237 211 209 216 206 202 209 214 229 235 219 223 219 192 215 250 246 210 189 179 180 185 192 196 186 171 168 175 178 179 183 187 188 185 185 188 190 189 189 190 190 189 186 187 190 190 189 188 189 191 192 192 195 196
181 216 255 257 228 223 233 230 232 248 245 225 228 229 216 208 206 217 220 212 217 210 182 196 225 242 239 218 199 200 194 185 197 205 199 193 190 185 186 187 186 185 186 185 187 190 191 193 195 193 189 188 191 192 190 188 187 189 192 193 193 194 195
139 167 212 246 241 238 245 205 204 231 246 247 254 259 254 246 236 227 215 208 225 237 230 217 209 227 249 242 198 192 192 178 179 195 209 208 192 180 185 191 190 188 189 187 181 185 192 196 196 192 190 191 192 190 188 187 187 190 192 192 192 194 195
146 146 196 223 244 305 297 227 185 211 255 262 278 279 283 320 1 293 217 14 318 324 62 45 45 287 273 264 215 191 183 168 166 177 191 198 192 182 182 189 192 190 187 186 186 189 193 194 192 190 190 190 188 188 189 189 189 191 193 192 191 192 195
169 170 213 251 293 306 275 251 155 51 25 64 116 192 300 8 53 71 62 37 27 38 50 44 35 30 14 341 303 257 209 185 176 176 183 192 200 206 196 186 188 192 191 191 192 193 192 191 190 190 190 187 185 186 189 190 191 192 192 192 191 192 194
169 164 198 251 258 238 233 262 11 20 37 82 110 112 349 3 50 72 77 63 49 41 29 21 34 44 36 353 306 290 270 246 224 203 198 201 204 220 228 202 188 189 192 194 196 194 189 189 192 191 188 185 183 185 188 190 192 192 193 194 192 191 193
49 170 195 217 237 223 184 169 127 61 54 62 79 67 350 329 18 60 75 68 56 50 32 26 44 50 31 328 305 314 316 304 285 257 232 204 165 157 174 201 194 194 194 195 196 192 187 189 192 190 188 186 184 184 189 191 192 192 192 194 193 190 191
107 119 215 224 231 244 246 231 142 102 85 73 72 92 260 295 2 49 71 68 57 51 44 44 56 53 22 320 312 327 332 330 319 296 264 182 136 129 105 51 192 197 196 194 190 189 190 192 191 187 186 187 186 186 189 191 194 195 192 191 191 188 184
65 88 246 241 161 243 299 350 6 41 83 86 116 197 225 316 27 47 62 64 59 55 56 58 66 56 19 333 336 349 349 351 351 336 318 277 132 127 99 35 30 190 192 192 191 193 194 193 191 187 184 185 187 188 187 189 195 198 192 185 181 176 172
354 63 11 335 351 298 304 37 10 6 58 116 191 197 167 55 51 54 59 61 58 57 62 66 74 64 29 357 357 8 6 2 2 358 352 347 350 30 54 31 21 179 190 193 194 196 195 192 189 187 184 186 188 185 183 190 197 195 185 175 169 165 162
319 36 49 77 323 300 291 80 16 12 112 200 246 71 71 59 55 57 56 55 53 59 66 62 59 55 37 14 5 10 13 10 2 358 5 6 357 357 9 20 21 29 198 199 194 191 191 190 189 189 187 187 187 185 185 191 190 183 172 165 161 157 156
356 5 35 53 320 314 312 138 144 241 196 238 351 74 75 56 47 53 59 53 45 52 64 60 52 47 37 22 10 7 13 16 9 0 2 12 14 6 360 3 10 13 4 261 216 194 190 190 190 192 191 185 181 184 188 185 175 165 161 158 153 151 151
307 255 270 312 324 320 321 78 108 103 56 39 56 79 76 57 40 42 58 59 49 50 58 57 52 45 32 19 13 11 9 8 10 10 7 8 15 14 11 7 2 4 24 31 16 360 328 241 205 195 190 185 180 179 178 171 161 156 154 151 146 145 145
318 261 264 336 338 321 308 303 104 93 71 54 61 71 67 60 54 48 49 56 57 59 63 62 54 41 29 23 20 17 12 7 8 13 12 14 15 13 16 13 357 353 26 50 47 25 357 336 305 229 192 181 176 170 165 161 156 152 148 143 140 139 138
342 313 352 6 338 312 304 298 98 91 82 74 69 72 72 65 61 57 50 50 56 61 64 67 64 53 43 38 30 22 19 16 14 11 11 17 18 13 16 18 5 356 20 49 60 67 31 358 345 329 250 182 169 162 157 153 151 147 142 137 135 134 132
312 282 348 357 312 304 329 358 30 74 87 89 80 76 79 72 65 60 54 49 52 54 53 57 65 60 50 43 38 32 26 22 19 15 12 17 19 17 17 18 14 11 20 49 63 63 67 59 28 1 347 358 139 145 147 145 141 137 133 130 126 123 123
296 269 341 352 315 316 357 19 10 5 57 85 84 77 74 70 66 64 59 53 52 53 47 44 52 53 45 36 35 34 29 24 21 17 15 19 23 25 22 17 15 17 17 23 54 59 51 67 73 45 8 7 46 79 95 109 110 104 102 107 109 112 117
335 345 344 349 326 315 351 15 10 354 13 65 78 75 68 64 63 65 65 59 52 50 45 41 48 51 41 31 33 36 33 23 18 21 25 24 21 25 32 28 20 16 15 15 39 58 56 63 80 81 43 22 56 77 84 94 99 98 99 105 111 118 123
288 285 294 318 350 313 330 356 8 357 360 46 68 72 71 70 66 63 66 62 54 50 43 38 44 49 42 33 32 37 35 26 20 24 26 23 16 17 29 36 25 10 9 27 63 70 66 65 83 95 85 69 83 94 100 105 110 114 117 118 119 125 128
282 277 273 252 153 319 331 358 17 10 2 37 62 68 71 74 72 68 68 65 59 58 51 40 38 41 42 38 34 35 35 28 25 25 22 21 21 16 16 28 33 15 1 7 87 103 96 94 102 111 113 116 120 123 126 130 132 131 129 128 130 132 131
294 284 226 187 175 149 307 350 30 28 11 28 56 65 69 76 78 77 76 71 65 63 59 49 40 36 37 38 34 33 33 26 24 27 27 23 22 14 4 12 31 22 359 4 86 108 113 115 118 131 141 139 141 140 138 139 139 134 131 133 136 136 134
Height
650 655 654 651 668 684 680 680 689 680 670 685 709 716 705 709 729 721 703 700 687 676 674 661 658 664 662 663 664 665 669 669 672 677 678 679 681 682 684 685 686 688 690 692 695 698 702 706 710 714 717 722 726 731 735 740 744 748 751 755 759 762 765
651 641 648 649 649 661 677 687 680 668 671 681 697 718 719 722 738 722 700 703 699 696 693 671 663 670 667 664 664 663 664 667 671 673 673 674 675 676 678 679 680 683 685 688 690 693 697 700 705 709 714 719 723 727 731 735 740 743 747 751 755 759 761
651 637 651 662 650 646 662 671 663 670 695 700 699 715 725 731 739 725 707 703 698 697 692 674 669 672 668 665 664 663 663 664 667 668 668 669 669 672 674 675 677 679 680 683 685 688 692 696 701 705 711 716 720 724 728 731 735 738 743 748 751 755 757
646 645 656 673 669 655 654 660 661 667 683 693 696 700 707 720 732 728 719 710 698 683 671 667 669 664 660 662 662 661 659 658 661 663 664 665 666 668 670 671 673 674 675 677 679 683 687 691 696 701 707 712 716 720 725 728 732 736 740 744 747 751 754
647 656 655 662 669 666 666 672 675 675 674 676 685 688 687 699 718 723 724 720 699 668 652 655 659 654 651 652 653 654 652 650 652 654 657 661 662 663 664 665 667 668 670 672 675 679 682 687 692 697 702 707 711 716 720 724 729 732 736 739 743 747 751
655 653 640 639 648 654 662 669 671 674 678 681 694 699 684 681 697 705 713 720 696 657 640 642 645 646 644 641 644 647 645 645 646 646 648 651 654 656 656 657 660 662 665 667 671 675 679 683 687 691 696 701 705 710 714 719 724 727 731 734 738 743 747
650 639 625 626 633 636 647 657 657 663 671 679 696 706 691 682 687 686 695 712 691 649 633 635 635 636 636 634 638 641 641 639 640 642 642 643 645 647 649 651 654 657 659 662 666 672 676 679 682 686 691 695 699 704 708 714 718 721 726 730 734 739 744
644 632 622 619 622 631 645 651 649 656 663 666 676 683 680 684 688 686 698 712 688 647 630 631 630 628 629 630 631 634 637 635 634 638 640 642 644 645 647 649 650 652 656 660 665 670 672 675 678 682 685 690 695 700 704 708 712 716 721 726 731 736 739
670 658 649 640 632 634 645 647 645 649 652 657 665 668 672 682 683 681 697 707 681 646 631 631 629 627 628 629 627 628 632 634 633 633 636 640 643 645 647 649 650 652 657 661 664 666 668 671 674 677 681 686 691 696 700 704 708 712 717 722 727 731 735
689 680 670 658 645 640 641 642 642 644 646 653 663 670 681 689 680 673 686 690 669 644 634 634 632 630 629 628 627 627 628 630 629 629 634 637 639 643 647 648 651 653 656 660 661 663 666 669 672 675 678 682 687 692 696 700 704 708 713 719 723 727 731
666 664 652 638 635 641 645 643 641 642 643 646 655 669 679 680 677 677 674 670 665 653 643 639 635 631 630 628 628 629 629 629 627 627 633 635 636 640 642 644 649 652 654 657 658 660 663 665 669 672 675 678 683 687 692 697 701 705 709 715 719 723 727
641 641 636 627 629 637 640 640 641 641 640 642 651 663 664 661 676 685 668 657 666 660 645 642 639 632 629 627 626 627 628 629 627 627 631 635 638 639 639 641 646 649 653 654 655 657 659 662 666 669 672 676 679 683 688 692 697 700 705 710 715 719 722
632 630 630 626 627 630 629 632 636 638 639 643 647 651 648 651 669 675 660 656 663 655 642 638 635 630 628 625 621 618 620 625 627 628 632 635 637 639 640 643 645 647 649 650 652 655 656 659 664 666 670 674 676 680 684 687 691 695 700 705 710 714 717
629 627 628 626 626 629 628 626 628 631 635 637 639 642 641 644 653 653 650 655 655 644 636 631 625 622 621 620 618 615 617 623 627 630 635 636 637 639 641 642 643 644 645 646 648 650 653 656 660 663 667 670 672 676 679 683 687 690 695 700 704 709 712
630 623 623 626 627 630 631 627 623 623 628 632 636 638 638 642 648 644 644 653 651 635 626 622 619 619 619 620 622 621 622 625 626 629 634 636 637 639 640 640 641 642 642 643 644 647 649 651 654 658 662 665 668 671 674 678 681 685 690 694 698 702 705
638 623 622 626 624 629 635 632 625 623 626 631 633 633 633 638 644 645 647 654 649 632 621 619 618 619 622 625 624 623 624 626 627 630 632 633 634 635 636 637 638 639 639 640 641 643 644 646 649 653 656 659 664 666 669 672 676 681 685 688 692 696 699
642 627 625 626 630 645 646 629 620 622 623 625 625 625 624 624 631 642 649 646 635 624 621 622 621 619 622 623 621 621 623 624 626 626 627 629 630 630 631 632 633 634 634 634 636 637 638 641 644 646 649 654 658 660 663 667 671 677 680 682 687 690 694
642 631 625 632 649 661 643 612 607 615 618 621 625 624 621 618 619 625 629 626 621 619 620 623 622 619 616 614 613 613 615 619 622 621 620 622 624 625 625 625 626 627 627 628 630 632 635 637 639 641 645 648 651 654 659 663 667 671 674 677 681 684 688
636 630 633 658 672 654 622 601 600 603 606 612 619 620 616 615 616 616 617 618 616 615 617 617 617 615 610 607 607 607 608 611 615 617 616 615 617 620 622 621 621 621 622 625 627 629 632 634 636 640 642 644 647 652 655 659 662 665 668 672 675 679 683
632 637 649 666 660 631 610 605 600 600 606 612 620 628 624 617 618 619 620 619 616 615 616 615 614 614 610 607 607 605 604 606 609 612 613 611 612 614 616 617 617 617 618 621 622 624 627 630 634 636 637 640 644 648 651 654 657 660 663 666 669 673 677
628 642 652 648 640 633 625 615 605 603 611 615 623 636 635 621 618 620 620 621 619 618 619 616 613 612 613 617 615 606 601 602 603 605 607 606 608 608 608 610 611 612 614 616 617 619 622 625 629 631 633 636 639 643 647 650 652 655 658 661 664 667 670
626 638 651 651 654 654 636 618 606 599 604 608 612 629 638 627 618 617 619 623 623 622 622 619 613 613 623 633 627 612 604 600 598 600 601 600 602 604 604 606 606 607 610 612 614 616 618 621 624 626 628 632 634 639 642 645 648 651 653 656 658 661 665
634 641 654 657 658 649 628 614 606 600 603 603 608 633 648 634 618 615 619 625 627 626 626 621 618 626 640 645 632 616 608 603 596 595 596 596 598 600 601 603 605 604 605 608 611 613 614 617 619 622 625 627 629 633 636 639 643 645 647 650 652 655 659
640 645 652 648 643 634 620 611 607 605 602 603 626 660 661 634 619 617 618 624 627 626 627 626 629 640 650 647 633 617 608 603 597 594 593 593 596 597 596 599 601 602 603 605 608 611 611 613 614 616 620 623 625 627 629 634 637 639 641 643 646 650 654
641 648 654 646 637 628 616 610 608 604 605 620 650 667 649 627 623 620 617 623 626 624 628 632 637 641 641 637 629 617 610 607 603 600 597 593 592 592 593 593 596 599 602 603 605 606 606 608 610 611 614 617 619 621 624 628 630 632 635 638 641 646 651
644 648 655 656 646 625 610 610 610 608 624 647 652 641 627 624 626 622 619 622 623 623 627 632 636 637 634 631 627 623 620 617 613 609 605 600 597 594 591 590 591 595 598 598 599 601 601 603 606 608 609 612 613 615 617 621 623 627 631 634 638 642 647
653 656 663 670 663 632 609 614 620 622 637 646 634 624 625 626 624 623 623 623 622 624 627 630 632 633 633 633 631 627 626 624 621 618 613 609 606 601 596 592 590 591 595 595 593 594 597 599 602 604 605 606 608 610 611 614 618 624 628 632 635 639 645
673 675 669 664 658 636 615 618 628 631 630 626 621 625 629 627 624 624 625 625 624 625 627 630 632 633 634 636 633 631 629 626 625 623 618 613 610 607 603 601 596 594 596 597 595 595 595 596 598 599 600 601 603 605 608 611 615 620 625 630 634 639 644
679 678 667 656 653 645 629 620 623 626 624 620 620 625 628 629 628 625 625 628 628 626 628 632 635 636 639 639 637 635 633 629 626 624 620 616 613 609 607 607 606 602 600 602 604 604 604 604 601 596 596 597 599 601 605 609 612 616 622 627 632 638 644
671 666 661 657 659 660 647 628 618 620 623 624 624 626 630 633 631 629 630 631 630 629 632 635 638 641 642 642 641 638 635 632 629 626 622 618 614 612 609 609 611 609 606 605 607 609 614 619 615 604 596 594 596 599 602 607 610 613 619 625 631 638 644
676 672 666 663 666 669 657 635 621 619 623 627 629 630 634 634 632 633 635 633 633 634 635 637 642 644 643 643 643 640 637 635 632 629 626 623 619 617 615 614 614 614 612 611 611 612 617 623 624 619 608 597 594 597 600 604 609 612 618 624 631 638 643
678 674 670 666 668 667 655 641 634 629 627 629 632 633 634 635 635 637 637 637 638 639 639 641 643 643 643 644 643 641 640 638 635 633 630 626 622 620 619 618 617 618 618 616 614 614 616 617 622 629 626 612 602 599 601 605 609 614 619 625 632 639 645
675 672 671 670 671 668 657 648 647 643 634 631 633 635 635 636 638 640 642 643 643 643 644 645 644 644 645 645 644 644 642 640 638 636 633 629 626 622 621 621 622 623 624 623 619 618 619 616 617 628 636 631 618 610 611 613 615 621 628 632 639 649 656
681 678 677 676 676 675 667 658 657 655 646 638 636 637 638 640 643 645 646 648 647 647 647 647 646 648 649 648 647 647 645 642 640 638 635 634 632 627 623 622 625 627 628 627 625 624 625 623 621 627 638 640 630 624 626 628 627 633 640 644 650 658 663
685 679 676 675 676 677 673 664 660 659 654 647 643 643 644 646 647 648 649 651 652 651 651 650 650 651 652 651 650 649 647 645 642 638 637 638 637 632 626 622 626 630 631 630 630 629 630 632 632 632 638 640 636 633 636 639 640 643 647 652 657 662 665
680 674 673 674 675 676 674 667 661 659 657 653 651 650 649 649 650 650 652 654 655 655 655 654 653 653 654 653 652 651 650 649 645 642 641 638 636 636 632 628 629 632 632 633 635 635 635 638 640 639 638 640 639 637 638 642 646 647 649 655 663 666 667
676 672 670 672 674 675 674 668 663 661 661 659 657 656 654 653 652 653 654 656 657 657 658 658 657 656 655 654 654 654 653 652 650 647 644 641 640 641 641 639 636 635 637 639 640 639 639 641 642 642 641 640 640 639 639 642 647 649 651 658 664 667 669